Algona, IA

1:56 PM CST on February 08, 2016 (GMT -0600)
Algona Municipal

Weather History for KAXA - November, 2013

Change the Weather History Date:

Tuesday, November 26, 2013

  Actual Average Record
Temperature  
Mean Temperature 22 °F -  
Max Temperature 33 °F 38 °F 66 °F (1998)
Min Temperature 12 °F 24 °F -5 °F (1996)
Degree Days  
Heating Degree Days 42    
Moisture  
Dew Point 9 °F    
Average Humidity 56    
Maximum Humidity 73    
Minimum Humidity 40    
Precipitation  
Precipitation 0.00 in - - ()
Sea Level Pressure  
Sea Level Pressure 30.24 in    
Wind  
Wind Speed 16 mph (NNW)    
Max Wind Speed 28 mph    
Max Gust Speed 39 mph    
Visibility 10 miles    
Events      
Averages and records for this station are not official NWS values.
T = Trace of Precipitation, MM = Missing Value Source: NWS Daily Summary

Daily Weather History Graph

Daily Weather History Graph

Search for Another Location

Airport or City:

Trip Planner

Search our weather history database for the weather conditions in past years. The results will help you decide how hot, cold, wet, or windy it might be!

Date:

Astronomy

Nov. 26, 2013 Rise Set
Actual Time 7:23 AM CST 4:45 PM CST
Civil Twilight 6:52 AM CST 5:16 PM CST
Nautical Twilight 6:16 AM CST 5:51 PM CST
Astronomical Twilight 5:42 AM CST 6:25 PM CST
Moon 12:17 AM CST (11/26) 1:01 PM CST (11/26)
Length of Visible Light 10h 24m
Length of Day
9h 21m
Last Quarter, 41% of the Moon is Illuminated
Nov 26
Last Quarter
Dec 2
New
Dec 9
First Quarter
Dec 17
Full
Dec 25
Last Quarter

Hourly Weather History & Observations

Time (CST) Temp. Windchill Dew Point Humidity Pressure Visibility Wind Dir Wind Speed Gust Speed Precip Events Conditions
12:15 AM 32.0 °F 23.6 °F 21.2 °F 64% 30.11 in 10.0 mi NW 10.4 mph 17.3 mph N/A   Overcast
12:35 AM 33.8 °F 23.9 °F 21.2 °F 60% 30.11 in 10.0 mi NNW 15.0 mph 21.9 mph N/A   Overcast
12:55 AM 32.0 °F 23.6 °F 21.2 °F 64% 30.10 in 10.0 mi NNW 10.4 mph 16.1 mph N/A   Overcast
1:15 AM 32.0 °F 24.8 °F 21.2 °F 64% 30.10 in 10.0 mi NNW 8.1 mph 17.3 mph N/A   Overcast
1:35 AM 32.0 °F 24.8 °F 21.2 °F 64% 30.10 in 10.0 mi NW 8.1 mph 16.1 mph N/A   Overcast
1:55 AM 32.0 °F 23.0 °F 21.2 °F 64% 30.11 in 10.0 mi NNW 11.5 mph - N/A   Overcast
2:15 AM 32.0 °F 22.5 °F 21.2 °F 64% 30.11 in 10.0 mi NNW 12.7 mph 19.6 mph N/A   Overcast
2:35 AM 32.0 °F 20.8 °F 19.4 °F 60% 30.12 in 10.0 mi NNW 17.3 mph 23.0 mph N/A   Overcast
2:55 AM 32.0 °F 20.8 °F 19.4 °F 60% 30.12 in 10.0 mi NNW 17.3 mph 26.5 mph N/A   Overcast
3:15 AM 30.2 °F 19.8 °F 19.4 °F 64% 30.12 in 10.0 mi NNW 13.8 mph 23.0 mph N/A   Overcast
3:35 AM 30.2 °F 19.8 °F 21.2 °F 69% 30.12 in 10.0 mi North 13.8 mph 19.6 mph N/A   Overcast
3:55 AM 30.2 °F 16.8 °F 19.4 °F 64% 30.13 in 10.0 mi NNW 23.0 mph - N/A   Overcast
4:15 AM 28.4 °F 15.1 °F 19.4 °F 69% 30.13 in 10.0 mi North 20.7 mph 31.1 mph N/A   Overcast
4:35 AM 28.4 °F 15.8 °F 17.6 °F 64% 30.14 in 10.0 mi North 18.4 mph 28.8 mph N/A   Overcast
4:55 AM 28.4 °F 14.7 °F 17.6 °F 64% 30.14 in 10.0 mi NNW 21.9 mph 27.6 mph N/A   Overcast
5:15 AM 26.6 °F 13.4 °F 17.6 °F 69% 30.15 in 10.0 mi North 18.4 mph 24.2 mph N/A   Overcast
5:35 AM 26.6 °F 12.7 °F 15.8 °F 64% 30.15 in 10.0 mi NNW 20.7 mph 29.9 mph N/A   Overcast
5:55 AM 26.6 °F 14.7 °F 14.0 °F 59% 30.16 in 10.0 mi NNW 15.0 mph 24.2 mph N/A   Overcast
6:15 AM 24.8 °F 10.3 °F 14.0 °F 64% 30.17 in 10.0 mi NNW 20.7 mph 32.2 mph N/A   Overcast
6:35 AM 24.8 °F 9.3 °F 14.0 °F 64% 30.18 in 10.0 mi North 24.2 mph 32.2 mph N/A   Overcast
6:55 AM 23.0 °F 6.6 °F 8.6 °F 54% 30.19 in 10.0 mi NNW 25.3 mph 35.7 mph N/A   Overcast
7:15 AM 21.2 °F 5.6 °F 8.6 °F 58% 30.21 in 10.0 mi NNW 20.7 mph 29.9 mph N/A   Mostly Cloudy
7:35 AM 21.2 °F 6.8 °F 8.6 °F 58% 30.22 in 10.0 mi NNW 17.3 mph 28.8 mph N/A   Scattered Clouds
7:55 AM 19.4 °F 4.5 °F 8.6 °F 63% 30.23 in 10.0 mi NNW 17.3 mph 26.5 mph N/A   Clear
8:15 AM 21.2 °F 7.3 °F 8.6 °F 58% 30.24 in 10.0 mi NNW 16.1 mph 24.2 mph N/A   Clear
8:35 AM 21.2 °F 5.2 °F 8.6 °F 58% 30.25 in 10.0 mi North 21.9 mph 27.6 mph N/A   Clear
8:55 AM 21.2 °F 6.0 °F 8.6 °F 58% 30.26 in 10.0 mi NNW 19.6 mph 27.6 mph N/A   Clear
9:15 AM 21.2 °F 6.4 °F 6.8 °F 54% 30.26 in 10.0 mi NNW 18.4 mph 28.8 mph N/A   Clear
9:35 AM 21.2 °F 5.2 °F 5.0 °F 50% 30.27 in 10.0 mi NNW 21.9 mph 28.8 mph N/A   Clear
9:55 AM 21.2 °F 4.9 °F 6.8 °F 54% 30.28 in 10.0 mi NNW 23.0 mph 31.1 mph N/A   Scattered Clouds
10:15 AM 23.0 °F 8.0 °F 6.8 °F 50% 30.28 in 10.0 mi North 20.7 mph 31.1 mph N/A   Mostly Cloudy
10:35 AM 23.0 °F 7.2 °F 6.8 °F 50% 30.28 in - NNW 23.0 mph 33.4 mph N/A   Mostly Cloudy
10:55 AM 23.0 °F 6.9 °F 5.0 °F 46% 30.28 in 10.0 mi North 24.2 mph 31.1 mph N/A   Overcast
11:15 AM 23.0 °F 7.6 °F 5.0 °F 46% 30.28 in 10.0 mi NNW 21.9 mph 29.9 mph N/A   Overcast
11:35 AM 23.0 °F 7.2 °F 5.0 °F 46% 30.28 in 10.0 mi NNW 23.0 mph 33.4 mph N/A   Mostly Cloudy
11:55 AM 24.8 °F 9.3 °F 5.0 °F 43% 30.27 in 10.0 mi NNW 24.2 mph 31.1 mph N/A   Scattered Clouds
12:15 PM 24.8 °F 9.6 °F 3.2 °F 40% 30.26 in 10.0 mi NNW 23.0 mph 34.5 mph N/A   Scattered Clouds
12:35 PM 24.8 °F 9.3 °F 3.2 °F 40% 30.26 in 10.0 mi NNW 24.2 mph 36.8 mph N/A   Scattered Clouds
12:55 PM 24.8 °F 9.6 °F 3.2 °F 40% 30.26 in 10.0 mi NNW 23.0 mph 36.8 mph N/A   Partly Cloudy
1:15 PM 24.8 °F 8.4 °F 3.2 °F 40% 30.26 in 10.0 mi NNW 27.6 mph - N/A   Scattered Clouds
1:35 PM 24.8 °F 8.4 °F 3.2 °F 40% 30.25 in 10.0 mi NNW 27.6 mph - N/A   Scattered Clouds
1:55 PM 24.8 °F 9.3 °F 3.2 °F 40% 30.25 in 10.0 mi NNW 24.2 mph 39.1 mph N/A   Partly Cloudy
2:15 PM 24.8 °F 9.6 °F 3.2 °F 40% 30.25 in 10.0 mi NW 23.0 mph 34.5 mph N/A   Partly Cloudy
2:35 PM 24.8 °F 8.4 °F 3.2 °F 40% 30.25 in 10.0 mi NNW 27.6 mph 36.8 mph N/A   Partly Cloudy
2:55 PM 24.8 °F 9.3 °F 5.0 °F 43% 30.25 in 10.0 mi North 24.2 mph 35.7 mph N/A   Partly Cloudy
3:15 PM 24.8 °F 9.3 °F 5.0 °F 43% 30.26 in 10.0 mi NNW 24.2 mph 35.7 mph N/A   Scattered Clouds
3:35 PM 24.8 °F 9.3 °F 5.0 °F 43% 30.27 in 10.0 mi NNW 24.2 mph 35.7 mph N/A   Scattered Clouds
3:55 PM 24.8 °F 11.5 °F 5.0 °F 43% 30.28 in 10.0 mi NNW 17.3 mph 33.4 mph N/A   Mostly Cloudy
4:15 PM 23.0 °F 8.0 °F 5.0 °F 46% 30.27 in 10.0 mi NNW 20.7 mph 31.1 mph N/A   Mostly Cloudy
4:35 PM 23.0 °F 7.2 °F 5.0 °F 46% 30.27 in 10.0 mi NNW 23.0 mph 35.7 mph N/A   Mostly Cloudy
4:55 PM 23.0 °F 8.3 °F 5.0 °F 46% 30.28 in 10.0 mi NNW 19.6 mph 28.8 mph N/A   Mostly Cloudy
5:15 PM 21.2 °F 8.3 °F 5.0 °F 50% 30.29 in 10.0 mi NNW 13.8 mph 23.0 mph N/A   Scattered Clouds
5:35 PM 21.2 °F 8.3 °F 5.0 °F 50% 30.30 in 10.0 mi NNW 13.8 mph 21.9 mph N/A   Clear
5:55 PM 21.2 °F 9.5 °F 5.0 °F 50% 30.30 in 10.0 mi North 11.5 mph 18.4 mph N/A   Clear
6:15 PM 19.4 °F 8.6 °F 5.0 °F 54% 30.30 in 10.0 mi NNW 9.2 mph - N/A   Clear
6:35 PM 19.4 °F 7.9 °F 5.0 °F 54% 30.30 in 10.0 mi North 10.4 mph 18.4 mph N/A   Clear
6:55 PM 19.4 °F 7.9 °F 5.0 °F 54% 30.31 in 10.0 mi North 10.4 mph 16.1 mph N/A   Clear
7:15 PM 19.4 °F 7.2 °F 5.0 °F 54% 30.31 in 10.0 mi North 11.5 mph 17.3 mph N/A   Clear
7:35 PM 17.6 °F 4.3 °F 6.8 °F 63% 30.32 in 10.0 mi North 12.7 mph - N/A   Scattered Clouds
7:55 PM 17.6 °F 5.7 °F 6.8 °F 63% 30.32 in 10.0 mi NNW 10.4 mph - N/A   Scattered Clouds
8:15 PM 17.6 °F 5.7 °F 6.8 °F 63% 30.32 in 10.0 mi North 10.4 mph - N/A   Clear
8:35 PM 17.6 °F 3.7 °F 6.8 °F 63% 30.32 in 10.0 mi North 13.8 mph 19.6 mph N/A   Clear
8:55 PM 15.8 °F 2.1 °F 6.8 °F 68% 30.32 in 10.0 mi North 12.7 mph - N/A   Clear
9:15 PM 15.8 °F 0.9 °F 5.0 °F 62% 30.32 in 10.0 mi North 15.0 mph - N/A   Clear
9:35 PM 15.8 °F 3.4 °F 5.0 °F 62% 30.33 in 10.0 mi North 10.4 mph 18.4 mph N/A   Clear
9:55 PM 15.8 °F 2.7 °F 5.0 °F 62% 30.33 in 10.0 mi NNW 11.5 mph - N/A   Clear
10:15 PM 15.8 °F 2.7 °F 5.0 °F 62% 30.34 in 10.0 mi NNW 11.5 mph - N/A   Clear
10:35 PM 14.0 °F 0.5 °F 5.0 °F 67% 30.33 in 10.0 mi NNW 11.5 mph 17.3 mph N/A   Clear
10:55 PM 14.0 °F 0.5 °F 5.0 °F 67% 30.33 in 10.0 mi North 11.5 mph - N/A   Clear
11:15 PM 14.0 °F 2.9 °F 5.0 °F 67% 30.34 in 10.0 mi NNW 8.1 mph - N/A   Clear
11:35 PM 12.2 °F -0.2 °F 5.0 °F 73% 30.34 in 10.0 mi NNW 9.2 mph - N/A   Clear
11:55 PM 12.2 °F -0.2 °F 5.0 °F 73% 30.35 in 10.0 mi NNW 9.2 mph - N/A   Clear